Theta_e
314 313 313 313 313 312 313 314 317 317 319 320 321 323 329 331 329 332 334 336 335 332
313 313 312 314 314 312 313 313 315 316 317 318 319 321 326 327 329 331 335 337 337 333
313 313 313 312 311 312 312 313 314 314 316 317 318 321 325 327 330 331 332 334 337 336
312 312 311 310 310 310 311 312 312 314 315 316 317 321 326 329 331 330 329 330 327 328
312 311 310 309 309 310 309 311 312 314 314 316 318 322 327 325 326 322 322 321 322 319
310 309 309 308 309 309 309 311 313 314 314 316 319 323 326 325 317 314 313 314 314 314
308 309 307 307 308 308 309 310 313 313 314 317 317 320 320 317 311 310 310 311 313 314
308 308 307 305 306 307 309 311 311 312 315 319 319 317 316 312 309 309 310 312 311 309
306 305 305 304 304 305 306 309 309 313 315 314 313 305 307 309 307 307 307 306 307 307
304 303 303 303 303 304 307 307 310 312 310 309 308 302 303 305 307 306 306 308 308 306
301 300 302 302 303 304 306 307 309 308 307 305 303 301 301 303 306 306 305 305 305 304
300 300 301 301 301 305 305 306 305 305 303 301 301 300 300 302 303 303 302 303 302 302
298 298 298 301 305 305 305 302 303 301 301 301 300 298 299 301 301 298 298 299 298 297
299 299 300 301 303 302 301 300 298 298 298 298 298 297 296 296 298 297 297 297 297 296
Wind_Speed
3 3 4 5 7 8 8 10 12 13 14 15 15 15 14 11 10 11 11 15 13 10
4 5 6 8 8 8 11 11 13 14 15 15 16 16 16 12 12 12 12 11 14 12
6 7 8 9 11 13 13 14 14 14 15 15 16 15 15 13 12 13 11 10 11 12
8 9 10 11 12 14 14 14 14 14 15 15 15 15 14 13 14 13 13 8 7 8
9 10 11 12 14 14 14 14 14 14 14 14 14 14 13 11 11 11 9 4 2 3
12 11 11 13 14 14 14 14 14 14 14 14 14 13 11 7 4 3 2 3 4 4
13 11 10 12 14 14 14 14 14 14 15 14 12 10 6 3 3 4 5 6 7 6
13 11 11 14 14 15 13 12 14 15 15 13 7 5 4 4 5 6 8 9 12 11
12 12 13 14 12 14 13 13 14 13 10 5 4 1 6 7 7 8 10 10 11 12
14 17 18 14 13 12 12 12 13 7 3 4 3 6 8 11 8 8 9 9 10 11
17 15 12 11 11 10 10 10 8 0 4 5 6 9 9 12 10 8 10 10 11 13
10 12 10 6 7 10 7 6 2 4 7 7 8 9 9 9 11 10 11 12 13 15
9 8 8 5 5 4 3 4 6 9 9 11 9 11 11 9 7 12 11 13 13 15
9 8 5 6 3 1 5 8 10 11 9 11 10 12 14 10 10 8 10 11 10 7
Wind_Direction
287 297 303 304 302 296 297 296 300 294 293 291 290 291 284 275 271 274 271 266 259 258
254 272 292 292 293 297 296 294 293 297 291 293 286 284 282 274 277 280 277 269 259 253
277 279 292 296 300 302 301 297 296 296 293 293 285 283 283 277 277 283 282 279 269 261
281 295 300 302 306 306 304 296 293 294 294 290 285 289 281 275 280 289 291 282 271 277
286 300 298 303 307 306 304 297 292 292 294 289 289 281 277 278 285 292 296 299 323 21
287 295 295 305 306 304 300 296 294 295 291 287 286 282 278 289 307 325 2 33 62 59
285 276 293 302 298 301 296 296 294 298 292 289 286 281 281 263 109 84 72 71 66 54
277 263 287 296 293 297 293 292 298 296 294 289 285 295 259 138 119 111 95 78 73 66
266 268 290 292 282 285 283 295 300 299 298 318 321 248 157 128 105 94 91 90 89 89
268 277 282 272 269 267 281 300 294 294 323 10 32 76 96 104 98 101 109 109 105 97
281 276 274 254 255 260 285 293 286 334 68 73 66 86 98 101 96 88 80 86 92 93
289 268 276 251 261 270 281 272 119 89 85 86 76 76 81 98 100 97 91 90 91 93
256 265 271 274 292 294 262 120 95 80 79 79 73 68 71 92 108 104 103 99 83 66
273 245 248 277 276 235 113 98 88 83 76 72 70 67 62 63 102 97 98 97 92 80